Location: Exeidioux
(45.6312°N, 1.6819°E)
Time: 14:52:00
(UTC+00:00)

Cosmos 2333 Rocket - Pass Details

Date: 03 March 2021
Orbit: 837 x 864 km, 70.8° (Epoch: 15 April)

Event Time Altitude Azimuth Distance (km) Brightness Sun altitude
Rises 18:46:35 0° 170° (S) 3,384 5.2 -11.9°
Reaches altitude 10° 18:49:22 10° 158° (SSE) 2,458 4.4 -12.4°
Maximum altitude 18:53:58 27° 103° (ESE) 1,594 3.1 -13.2°
Drops below altitude 10° 18:58:38 10° 48° (NE) 2,488 4.2 -14.0°
Sets 19:01:26 0° 36° (NE) 3,433 5.1 -14.5°
